Regional Weather Roundup
Issued by NWS

Home | Current Version | Previous Version | Graphics & Text | Print | Product List | Glossary Off
Versions: 1 2 3 4 5 6 7 8 9 10 11 12 13 14 15 16 17 18 19 20 21 22 23 24 25 26 27 28 29 30 31 32 33 34 35 36 37 38 39 40 41 42 43 44 45 46 47 48 49 50

000
ASUS43 KTOP 170159
RWRKS

WEATHER ROUNDUP FOR KANSAS
NATIONAL WEATHER SERVICE GOODLAND KS
800 PM CST MON JAN 16 2017

NOTE:  "FAIR" INDICATES FEW OR NO CLOUDS BELOW 12,000 FEET WITH NO
SIGNIFICANT WEATHER AND/OR OBSTRUCTIONS TO VISIBILITY.

KSZ001>006-013>018-027>032-041>047-170300-
NORTHWEST KANSAS

CITY           SKY/WX    TMP DP  RH WIND       PRES   REMARKS
GOODLAND       CLOUDY    33  28  81 NW13      30.06R WCI  24
HAYS           CLOUDY    34  32  92 NW9       30.03R
HILL CITY      CLOUDY    34  33  96 NW9       30.04R
RUSSELL        CLOUDY    33  32  96 NW7       30.00R
$$

KSZ061>065-074>080-084>089-170300-
SOUTHWEST KANSAS

CITY           SKY/WX    TMP DP  RH WIND       PRES   REMARKS
DODGE CITY     CLOUDY    33  32  96 NW12      30.04R WCI  24
ELKHART          N/A     33  26  75 NW12        N/A  WCI  24
GARDEN CITY    CLOUDY    33  31  92 NW13      30.06R WCI  24
GREAT BEND     CLOUDY    33  31  92 NW10      30.03R WCI  25
LIBERAL        CLOUDY    36  30  80 N15       30.06R WCI  26
$$

KSZ066>073-081>083-090>101-170300-
SOUTHEAST KANSAS

CITY           SKY/WX    TMP DP  RH WIND       PRES   REMARKS
CHANUTE        CLOUDY    40  38  93 SW12      29.98R WCI  33
HUTCHINSON     CLOUDY    35  32  88 NW10      30.00R WCI  27
MEDICINE LODGE   N/A     35  31  85 NW8       30.03R
NEWTON         CLOUDY    34  32  92 W10       29.99R WCI  26
PARSONS        CLOUDY    41  38  89 SW12      30.01R
WICHITA INTL   CLOUDY    36  34  92 W9        29.99S
WICHITA JABRA  CLOUDY    35  34  96 W9        29.98S
WICHITA MCCONL MOCLDY    36  32  87 W9        29.99S
WINFIELD       CLOUDY    38  35  89 W10       30.02R WCI  31
$$

KSZ007>012-019>026-033>040-048>060-102>105-170300-
NORTHEAST KANSAS

CITY           SKY/WX    TMP DP  RH WIND       PRES   REMARKS
CONCORDIA      CLOUDY    33  32  96 N12       29.97S WCI  24
EMPORIA        CLOUDY    36  35  96 W8        29.96R
LAWRENCE       CLOUDY    40  39  97 SW14      29.92S WCI  32
MANHATTAN      CLOUDY    35  33  92 W5        29.97R
OLATHE IND     CLOUDY    40  38  93 SW12      29.92R WCI  33
OLATHE EXE     CLOUDY    40  39  97 SW9G21    29.91R
SALINA         CLOUDY    34  32  92 NW7         N/A
TOPEKA BILLARD CLOUDY    38  34  85 W10       29.93R WCI  31
TOPEKA FORBES  CLOUDY    39  36  89 W14       29.92R WCI  31
$$



USA.gov is the U.S. government's official web portal to all federal, state and local government web resources and services.